Regional Weather Roundup
Issued by NWS

Home | Current Version | Previous Version | Graphics & Text | Print | Product List | Glossary On
Versions: 1 2 3 4 5 6 7 8 9 10 11 12 13 14 15 16 17 18 19 20 21 22 23 24 25 26 27 28 29 30 31 32 33 34 35 36 37 38 39 40 41 42 43 44 45 46 47 48 49 50
000
ASUS43 KDMX 240806
RWRIA

WEATHER ROUNDUP FOR IOWA
NATIONAL WEATHER SERVICE DES MOINES IA
300 AM CDT FRI MAR 24 2017

NOTE: "FAIR" INDICATES FEW OR NO CLOUDS BELOW 12,000 FEET WITH NO
SIGNIFICANT WEATHER AND/OR OBSTRUCTIONS TO VISIBILITY.

* - THESE STATIONS ARE NOT NWS STATIONS...THUS NOT UNDER NWS
QUALITY CONTROL.  THEY ALSO DO NOT REPORT WEATHER SUCH
AS PRECIPITATION OR FOG.

IAZ001>003-012>014-020>022-031>034-043>046-240900-
   NORTHWEST IOWA

CITY           SKY/WX    TMP DP  RH WIND       PRES   REMARKS
CARROLL *      CLOUDY    59  54  82 W10       29.74R
CHEROKEE *     LGT RAIN  43  42  95 N8        29.76R
LE MARS *      LGT RAIN  46  45  93 SE5       29.78R
ORANGE CITY *  RAIN      43  43 100 S3        29.80R
SHELDON *      LGT RAIN  41  41 100 E7G14     29.73S
SIOUX CITY     LGT RAIN  48  48 100 N10       29.74F FOG
SPENCER        CLOUDY    41  40  96 NE10      29.76F
STORM LAKE *   LGT RAIN  43  41  93 E5        29.76S
$$

IAZ055>058-069>071-079>083-090>094-240900-
   SOUTHWEST IOWA

CITY           SKY/WX    TMP DP  RH WIND       PRES   REMARKS
ATLANTIC *     CLOUDY    66  48  52 S16       29.72S
AUDUBON *      CLOUDY    63  50  63 SW9       29.75R
CLARINDA *     MOCLDY    66  48  52 S15G24    29.76R
COUNCIL BLFS * MOCLDY    63  54  72 NW7       29.74R
CRESTON *      MOCLDY    63  46  55 S17       29.77R
HARLAN  *      CLOUDY    59  55  88 W12       29.79R
LAMONI         PTCLDY    62  45  53 S13       29.79R
RED OAK *      CLOUDY    66  48  52 S15       29.73S
SHENANDOAH *   CLOUDY    64  48  55 S13       29.73R
$$

IAZ047>049-059>061-072>074-084-240900-
   CENTRAL IOWA

CITY           SKY/WX    TMP DP  RH WIND       PRES   REMARKS
AMES           PTCLDY    50  43  77 SE9       29.75F
ANKENY *       CLOUDY    52  43  71 SE3       29.77S
BOONE *        MOCLDY    48  41  76 SE8       29.75R
CHARITON *     CLOUDY    54  46  76 S10       29.79S
DES MOINES     CLOUDY    57  44  62 SE8       29.75F
GRINNELL*      MOCLDY    46  40  78 SE8       29.80F
MARSHALLTOWN   CLOUDY    46  40  79 SE13      29.77S
NEWTON *       PTCLDY    48  41  76 SE9       29.77F
PELLA *        PTCLDY    48  42  78 SE7       29.80F
PERRY *          N/A     50  39  67 E5        29.74S
$$

IAZ004>006-015-016-023>025-035-036-240900-
   NORTH CENTRAL IOWA

CITY           SKY/WX    TMP DP  RH WIND       PRES   REMARKS
ALGONA *       CLOUDY    41  41 100 N10       29.79R
CLARION *      CLOUDY    45  45 100 E9        29.75S
ESTHERVILLE    LGT RAIN  39  39 100 N7        29.79S FOG     WCI  34
FORT DODGE *   CLOUDY    46  43  87 SE3       29.73F
MASON CITY     CLOUDY    40  37  89 NE7       29.80F
FOREST CITY *  LGT RAIN  39  37  93 NE6       29.79F WCI  35
WEBSTER CITY * CLOUDY    48  43  81 SE8       29.72F
IOWA FALLS *     N/A     49  42  78 S6        29.77R
$$

IAZ007>011-017>019-026>030-037>042-050>054-066-240900-
   NORTHEAST IOWA

CITY           SKY/WX    TMP DP  RH WIND       PRES   REMARKS
CEDAR RAPIDS   CLOUDY    43  41  93 SE9       29.81F
CHARLES CITY * CLOUDY    41  41 100 CALM      29.81R
CLINTON *      CLOUDY    45  41  86 S7        29.88F
DECORAH *      CLOUDY    43  39  87 VRB7      29.79R
DUBUQUE        CLOUDY    42  38  85 S13       29.83F
MONTICELLO *   CLOUDY    43  39  87 SE8       29.83S
OELWEIN *      CLOUDY    39  39 100 SE13      29.79F WCI  32
WATERLOO       PTCLDY    43  39  86 SE6       29.78F
$$

IAZ064-065-067-068-078-240900-
   EAST CENTRAL IOWA

CITY           SKY/WX    TMP DP  RH WIND       PRES   REMARKS
DAVENPORT      CLOUDY    51  43  74 S17       29.87F
IOWA CITY      PTCLDY    42  39  89 CALM      29.86S
MUSCATINE *    CLOUDY    41  39  93 S3        29.87F
QUAD CITIES    PTCLDY    52  43  71 S8        29.87F
$$

IAZ062-063-075>077-085>089-095>099-240900-
   SOUTHEAST IOWA

CITY           SKY/WX    TMP DP  RH WIND       PRES   REMARKS
BURLINGTON     CLOUDY    56  46  69 S15       29.86S
FAIRFIELD *    CLOUDY    55  46  71 S10       29.83F
FORT MADISON * CLOUDY    54  46  76 S9        29.88R
KEOKUK *       CLOUDY    55  46  71 S6        29.86R
OSKALOOSA *      N/A     50  44  79 S12       29.81F
CENTERVILLE *    N/A     59  48  67 S9        29.83S
OTTUMWA        CLOUDY    54  45  71 S12       29.81F
WASHINGTON *   CLOUDY    48  45  87 S10       29.85F
$$

ABBREVIATIONS USED IN REMARKS
   TC - TEMPERATURES IN CELSIUS
  WCI - WIND CHILL INDEX
   HX - HEAT INDEX
  VSB - VISIBILITY
$$




USA.gov is the U.S. government's official web portal to all federal, state and local government web resources and services.